Location: Newark
(37.9128°N, 122.4756°W)
Time: 20:45:53
(UTC+00:00)

ISS - Pass Details

Date: 20 November 2019
Orbit: 411 x 421 km, 51.6° (Epoch: 10 December)

Event Time Altitude Azimuth Distance (km) Brightness Sun altitude
Rises 03:28:52 0° 237° (WSW) 2,346 0.9 -30.1°
Reaches altitude 10° 03:30:58 10° 241° (WSW) 1,488 -0.3 -30.5°
Enters shadow 03:31:14 12° 242° (WSW) 1,383 -0.4 -30.5°
